TimeCST,TemperatureF,Dew PointF,Humidity,Sea Level PressureIn,VisibilityMPH,Wind Direction,Wind SpeedMPH,Gust SpeedMPH,PrecipitationIn,Events,Conditions,WindDirDegrees,DateUTC
12:15 AM,6.4,-2.9,65,30.41,10.0,NW,12.7,-,N/A,,Clear,320,2013-12-06 06:15:00
12:35 AM,6.8,-3.1,64,30.40,10.0,NW,13.8,-,N/A,,Clear,320,2013-12-06 06:35:00
12:55 AM,6.8,-3.3,63,30.40,10.0,NW,12.7,17.3,N/A,,Mostly Cloudy,320,2013-12-06 06:55:00
1:15 AM,7.0,-4.0,61,30.40,10.0,NNW,16.1,-,N/A,,Mostly Cloudy,330,2013-12-06 07:15:00
1:35 AM,7.0,-3.6,62,30.40,10.0,NW,13.8,-,N/A,,Scattered Clouds,320,2013-12-06 07:35:00
1:55 AM,6.8,-4.0,61,30.41,10.0,NNW,15.0,-,N/A,,Clear,330,2013-12-06 07:55:00
2:15 AM,6.4,-4.0,62,30.42,10.0,NW,8.1,-,N/A,,Clear,320,2013-12-06 08:15:00
2:35 AM,5.7,-4.7,62,30.41,10.0,NW,12.7,-,N/A,,Clear,320,2013-12-06 08:35:00
2:55 AM,4.8,-5.3,63,30.41,10.0,NNW,11.5,-,N/A,,Clear,330,2013-12-06 08:55:00
3:15 AM,4.1,-5.1,66,30.41,10.0,NW,9.2,-,N/A,,Clear,320,2013-12-06 09:15:00
3:35 AM,4.1,-4.7,67,30.44,10.0,WNW,10.4,-,N/A,,Clear,300,2013-12-06 09:35:00
3:55 AM,3.7,-5.3,66,30.44,10.0,NW,10.4,-,N/A,,Clear,310,2013-12-06 09:55:00
5:35 AM,2.3,-5.3,71,30.46,10.0,WNW,12.7,16.1,N/A,,Clear,290,2013-12-06 11:35:00
5:55 AM,2.1,-5.8,69,30.46,10.0,WNW,12.7,-,N/A,,Clear,300,2013-12-06 11:55:00
6:15 AM,1.8,-5.8,71,30.46,10.0,WNW,9.2,18.4,N/A,,Clear,300,2013-12-06 12:15:00
6:35 AM,1.4,-6.3,70,30.47,10.0,NW,11.5,-,N/A,,Clear,310,2013-12-06 12:35:00
6:55 AM,1.2,-6.7,69,30.48,10.0,WNW,11.5,-,N/A,,Clear,300,2013-12-06 12:55:00
7:15 AM,0.9,-6.9,70,30.49,10.0,NW,9.2,-,N/A,,Clear,310,2013-12-06 13:15:00
7:35 AM,0.5,-7.4,69,30.48,10.0,NW,12.7,-,N/A,,Clear,310,2013-12-06 13:35:00
7:55 AM,0.5,-7.1,70,30.47,10.0,NW,12.7,-,N/A,,Clear,310,2013-12-06 13:55:00
8:15 AM,0.7,-7.1,70,30.47,10.0,NW,9.2,-,N/A,,Clear,320,2013-12-06 14:15:00
8:35 AM,1.4,-6.7,69,30.49,10.0,NW,10.4,-,N/A,,Clear,320,2013-12-06 14:35:00
8:55 AM,2.7,-6.3,66,30.50,10.0,NNW,13.8,-,N/A,,Clear,340,2013-12-06 14:55:00
9:15 AM,3.4,-6.0,65,30.51,10.0,NW,13.8,-,N/A,,Clear,320,2013-12-06 15:15:00
9:35 AM,3.9,-6.2,63,30.51,10.0,NNW,13.8,17.3,N/A,,Clear,330,2013-12-06 15:35:00
9:55 AM,3.9,-7.1,60,30.52,10.0,NNW,15.0,20.7,N/A,,Clear,340,2013-12-06 15:55:00
10:15 AM,5.0,-6.0,61,30.51,10.0,NNW,16.1,-,N/A,,Clear,340,2013-12-06 16:15:00
10:35 AM,5.7,-5.4,60,30.51,10.0,NNW,17.3,21.9,N/A,,Clear,340,2013-12-06 16:35:00
10:55 AM,6.6,-4.9,59,30.52,10.0,NNW,13.8,-,N/A,,Clear,330,2013-12-06 16:55:00
11:15 AM,7.5,-4.4,58,30.52,10.0,North,12.7,-,N/A,,Clear,350,2013-12-06 17:15:00
11:35 AM,9.1,-2.9,58,30.52,10.0,NNW,16.1,19.6,N/A,,Clear,330,2013-12-06 17:35:00
11:55 AM,9.1,-3.6,56,30.52,10.0,NNW,12.7,18.4,N/A,,Clear,330,2013-12-06 17:55:00
12:15 PM,9.5,-3.1,57,30.51,10.0,NNW,11.5,-,N/A,,Clear,330,2013-12-06 18:15:00
12:35 PM,10.4,-2.4,56,30.50,10.0,NNW,15.0,-,N/A,,Clear,340,2013-12-06 18:35:00
12:55 PM,11.1,-2.0,56,30.49,10.0,North,8.1,20.7,N/A,,Clear,350,2013-12-06 18:55:00
1:15 PM,12.0,-0.9,56,30.50,10.0,NNW,11.5,18.4,N/A,,Clear,340,2013-12-06 19:15:00
1:35 PM,12.4,-0.9,55,30.51,10.0,NNW,10.4,-,N/A,,Clear,330,2013-12-06 19:35:00
1:55 PM,12.4,-0.8,56,30.51,10.0,NNW,12.7,-,N/A,,Clear,330,2013-12-06 19:55:00
2:15 PM,13.8,0.1,55,30.50,10.0,NW,12.7,17.3,N/A,,Clear,320,2013-12-06 20:15:00
2:35 PM,13.5,-0.4,54,30.51,10.0,NW,13.8,-,N/A,,Clear,320,2013-12-06 20:35:00
2:55 PM,13.5,-0.0,55,30.50,10.0,NNW,11.5,17.3,N/A,,Clear,330,2013-12-06 20:55:00
3:15 PM,13.1,-0.6,54,30.51,10.0,NW,8.1,18.4,N/A,,Clear,320,2013-12-06 21:15:00
3:35 PM,12.7,-0.4,56,30.51,10.0,NW,10.4,-,N/A,,Clear,320,2013-12-06 21:35:00
3:55 PM,12.9,-0.6,55,30.52,10.0,North,10.4,-,N/A,,Clear,350,2013-12-06 21:55:00
4:15 PM,12.2,-0.6,57,30.53,10.0,NNW,10.4,-,N/A,,Clear,330,2013-12-06 22:15:00
4:35 PM,11.8,-0.4,58,30.53,10.0,NNW,8.1,-,N/A,,Clear,330,2013-12-06 22:35:00
4:55 PM,11.5,-0.4,59,30.54,10.0,NNW,10.4,-,N/A,,Clear,330,2013-12-06 22:55:00
5:35 PM,10.4,-0.4,62,30.54,10.0,NNW,8.1,-,N/A,,Clear,330,2013-12-06 23:35:00
5:55 PM,10.0,-0.8,62,30.55,10.0,NNW,9.2,-,N/A,,Clear,330,2013-12-06 23:55:00
6:15 PM,9.3,-0.9,63,30.56,10.0,NW,10.4,-,N/A,,Clear,320,2013-12-07 00:15:00
6:35 PM,9.0,-1.3,63,30.57,10.0,NW,9.2,-,N/A,,Clear,320,2013-12-07 00:35:00
6:55 PM,8.2,-1.3,65,30.58,10.0,NW,8.1,-,N/A,,Clear,320,2013-12-07 00:55:00
7:15 PM,7.7,-1.7,66,30.59,10.0,NW,6.9,-,N/A,,Clear,320,2013-12-07 01:15:00
7:35 PM,7.2,-1.8,67,30.60,10.0,NNW,10.4,-,N/A,,Clear,330,2013-12-07 01:35:00
7:55 PM,6.6,-2.2,67,30.61,10.0,NNW,11.5,-,N/A,,Clear,330,2013-12-07 01:55:00
8:15 PM,6.3,-2.6,67,30.61,10.0,NW,10.4,-,N/A,,Clear,320,2013-12-07 02:15:00
8:35 PM,5.7,-3.1,67,30.62,10.0,NNW,12.7,-,N/A,,Clear,330,2013-12-07 02:35:00
8:55 PM,5.0,-3.5,68,30.63,10.0,NNW,11.5,-,N/A,,Clear,330,2013-12-07 02:55:00
9:15 PM,4.5,-3.8,69,30.63,10.0,NNW,12.7,-,N/A,,Clear,330,2013-12-07 03:15:00
9:35 PM,3.9,-4.0,70,30.64,10.0,NNW,10.4,-,N/A,,Clear,330,2013-12-07 03:35:00
9:55 PM,3.2,-4.0,72,30.64,10.0,NW,10.4,-,N/A,,Clear,320,2013-12-07 03:55:00
10:15 PM,2.3,-5.4,70,30.65,10.0,NNW,13.8,-,N/A,,Clear,330,2013-12-07 04:15:00
10:35 PM,1.9,-6.0,69,30.65,10.0,NNW,12.7,-,N/A,,Clear,330,2013-12-07 04:35:00
10:55 PM,1.4,-6.0,71,30.66,10.0,NNW,11.5,-,N/A,,Clear,330,2013-12-07 04:55:00
11:15 PM,1.0,-6.2,72,30.67,10.0,NNW,12.7,-,N/A,,Clear,330,2013-12-07 05:15:00
11:35 PM,0.5,-6.5,72,30.67,10.0,NNW,9.2,-,N/A,,Clear,330,2013-12-07 05:35:00
11:55 PM,0.3,-6.7,72,30.68,10.0,NNW,10.4,-,N/A,,Clear,330,2013-12-07 05:55:00